Time,TemperatureF,DewpointF,PressureIn,WindDirection,WindDirectionDegrees,WindSpeedMPH,WindSpeedGustMPH,Humidity,HourlyPrecipIn,Conditions,Clouds,dailyrainin,SoftwareType,DateUTC
2013-05-31 00:00:00,75.0,69.1,30.17,SSW,202,1.0,2.0,82,0.00,,---,0.00,VWS V14.01,2013-05-31 04:00:00,
2013-05-31 00:30:00,74.6,68.8,30.17,SSE,158,1.0,2.0,82,0.00,,---,0.00,VWS V14.01,2013-05-31 04:30:00,
2013-05-31 01:00:00,74.4,68.2,30.17,South,180,1.0,3.0,81,0.00,,---,0.00,VWS V14.01,2013-05-31 05:00:00,
2013-05-31 01:30:00,73.6,67.8,30.17,SW,225,1.0,4.0,82,0.00,,---,0.00,VWS V14.01,2013-05-31 05:30:00,
2013-05-31 02:00:00,72.8,67.3,30.17,SW,225,1.0,3.0,83,0.00,,---,0.00,VWS V14.01,2013-05-31 06:00:00,
2013-05-31 02:30:00,72.2,67.1,30.17,West,270,1.0,3.0,84,0.00,,---,0.00,VWS V14.01,2013-05-31 06:30:00,
2013-05-31 03:00:00,71.6,66.9,30.17,West,270,0.0,1.0,85,0.00,,---,0.00,VWS V14.01,2013-05-31 07:00:00,
2013-05-31 03:30:00,71.1,67.0,30.17,WSW,248,0.0,2.0,87,0.00,,---,0.00,VWS V14.01,2013-05-31 07:30:00,
2013-05-31 04:00:00,71.0,66.9,30.18,West,270,1.0,1.0,87,0.00,,---,0.00,VWS V14.01,2013-05-31 08:00:00,
2013-05-31 04:30:00,70.5,66.8,30.18,West,270,1.0,2.0,88,0.00,,---,0.00,VWS V14.01,2013-05-31 08:30:00,
2013-05-31 05:00:00,70.1,67.0,30.17,West,270,1.0,2.0,90,0.00,,---,0.00,VWS V14.01,2013-05-31 09:00:00,
2013-05-31 05:30:00,69.5,67.1,30.18,West,270,0.0,1.0,92,0.00,,---,0.00,VWS V14.01,2013-05-31 09:30:00,
2013-05-31 06:00:00,68.5,66.4,30.18,West,270,0.0,1.0,93,0.00,,---,0.00,VWS V14.01,2013-05-31 10:00:00,
2013-05-31 06:30:00,67.6,65.8,30.19,West,270,0.0,1.0,94,0.00,,---,0.00,VWS V14.01,2013-05-31 10:30:00,
2013-05-31 07:00:00,67.5,66.3,30.19,West,270,0.0,1.0,96,0.00,,---,0.00,VWS V14.01,2013-05-31 11:00:00,
2013-05-31 07:30:00,68.6,67.4,30.19,SSW,202,0.0,1.0,96,0.00,,---,0.00,VWS V14.01,2013-05-31 11:30:00,
2013-05-31 08:00:00,70.5,68.4,30.19,West,270,0.0,3.0,93,0.00,,---,0.00,VWS V14.01,2013-05-31 12:00:00,
2013-05-31 08:30:00,72.2,69.1,30.19,West,270,0.0,2.0,90,0.00,,---,0.00,VWS V14.01,2013-05-31 12:30:00,
2013-05-31 09:00:00,74.2,69.8,30.19,West,270,1.0,3.0,86,0.00,,---,0.00,VWS V14.01,2013-05-31 13:00:00,
2013-05-31 09:30:00,76.5,70.2,30.19,SW,225,1.0,3.0,81,0.00,,---,0.00,VWS V14.01,2013-05-31 13:30:00,
2013-05-31 10:00:00,78.1,70.3,30.19,South,180,1.0,3.0,77,0.00,,---,0.00,VWS V14.01,2013-05-31 14:00:00,
2013-05-31 10:30:00,80.0,71.0,30.19,SW,225,1.0,2.0,74,0.00,,---,0.00,VWS V14.01,2013-05-31 14:30:00,
2013-05-31 11:00:00,82.5,70.0,30.19,West,270,1.0,3.0,66,0.00,,---,0.00,VWS V14.01,2013-05-31 15:00:00,
2013-05-31 11:30:00,84.4,69.5,30.19,WNW,292,1.0,3.0,61,0.00,,---,0.00,VWS V14.01,2013-05-31 15:30:00,
2013-05-31 12:00:00,84.3,68.4,30.19,SW,225,1.0,4.0,59,0.00,,---,0.00,VWS V14.01,2013-05-31 16:00:00,
2013-05-31 12:30:00,85.2,69.3,30.19,West,270,1.0,4.0,59,0.00,,---,0.00,VWS V14.01,2013-05-31 16:30:00,
2013-05-31 13:00:00,86.5,69.0,30.17,West,270,1.0,3.0,56,0.00,,---,0.00,VWS V14.01,2013-05-31 17:00:00,
2013-05-31 13:30:00,88.0,67.6,30.16,West,270,1.0,4.0,51,0.00,,---,0.00,VWS V14.01,2013-05-31 17:30:00,
2013-05-31 14:00:00,88.6,65.8,30.15,SSE,158,1.0,4.0,47,0.00,,---,0.00,VWS V14.01,2013-05-31 18:00:00,
2013-05-31 14:30:00,89.8,66.9,30.14,West,270,1.0,3.0,47,0.00,,---,0.00,VWS V14.01,2013-05-31 18:30:00,
2013-05-31 15:00:00,89.6,66.7,30.13,West,270,1.0,5.0,47,0.00,,---,0.00,VWS V14.01,2013-05-31 19:00:00,
2013-05-31 15:30:00,91.2,66.3,30.12,West,270,1.0,4.0,44,0.00,,---,0.00,VWS V14.01,2013-05-31 19:30:00,
2013-05-31 16:00:00,88.5,66.3,30.10,West,270,1.0,5.0,48,0.00,,---,0.00,VWS V14.01,2013-05-31 20:00:00,
2013-05-31 16:30:00,87.7,66.8,30.09,West,270,1.0,5.0,50,0.00,,---,0.00,VWS V14.01,2013-05-31 20:30:00,
2013-05-31 17:00:00,87.4,67.1,30.08,West,270,1.0,3.0,51,0.00,,---,0.00,VWS V14.01,2013-05-31 21:00:00,
2013-05-31 17:30:00,86.0,66.9,30.08,SSW,202,1.0,4.0,53,0.00,,---,0.00,VWS V14.01,2013-05-31 21:30:00,
2013-05-31 18:00:00,85.6,67.1,30.07,SSW,202,1.0,3.0,54,0.00,,---,0.00,VWS V14.01,2013-05-31 22:00:00,
2013-05-31 18:30:00,85.0,66.5,30.07,SE,135,1.0,3.0,54,0.00,,---,0.00,VWS V14.01,2013-05-31 22:30:00,
2013-05-31 19:00:00,84.2,67.3,30.07,SSE,158,0.0,1.0,57,0.00,,---,0.00,VWS V14.01,2013-05-31 23:00:00,
2013-05-31 19:30:00,83.2,66.9,30.07,South,180,0.0,1.0,58,0.00,,---,0.00,VWS V14.01,2013-05-31 23:30:00,
2013-05-31 20:00:00,81.6,67.3,30.07,South,180,0.0,0.0,62,0.00,,---,0.00,VWS V14.01,2013-06-01 00:00:00,
2013-05-31 20:30:00,79.4,67.1,30.08,South,180,0.0,0.0,66,0.00,,---,0.00,VWS V14.01,2013-06-01 00:30:00,
2013-05-31 21:00:00,77.2,67.1,30.08,South,180,0.0,0.0,71,0.00,,---,0.00,VWS V14.01,2013-06-01 01:00:00,
2013-05-31 21:30:00,77.1,67.8,30.09,SSW,202,0.0,1.0,73,0.00,,---,0.00,VWS V14.01,2013-06-01 01:30:00,
2013-05-31 22:00:00,77.5,68.6,30.10,South,180,0.0,1.0,74,0.00,,---,0.00,VWS V14.01,2013-06-01 02:00:00,
2013-05-31 22:30:00,77.5,69.3,30.10,SSE,158,0.0,5.0,76,0.00,,---,0.00,VWS V14.01,2013-06-01 02:30:00,
2013-05-31 23:00:00,77.4,69.6,30.09,SW,225,1.0,3.0,77,0.00,,---,0.00,VWS V14.01,2013-06-01 03:00:00,
2013-05-31 23:30:00,76.8,69.8,30.10,SSW,202,1.0,4.0,79,0.00,,---,0.00,VWS V14.01,2013-06-01 03:30:00,